Location: ???????
(55.4362°N, 38.1183°E)
Time: 17:46:52
(UTC+00:00)

Cosmos 2219 Rocket - Pass Details

Date: 28 October 2021
Orbit: 826 x 848 km, 71.0° (Epoch: 04 December)

Event Time Altitude Azimuth Distance (km) Brightness Sun altitude
Rises 15:26:29 0° 168° (SSE) 3,358 5.2 -13.1°
Reaches altitude 10° 15:29:20 10° 155° (SSE) 2,432 4.4 -13.5°
Maximum altitude 15:33:40 24° 103° (ESE) 1,672 3.2 -14.1°
Enters shadow 15:35:19 21° 78° (ENE) 1,808 3.3 -14.3°
